Weather History for KFYG - January, 2014

Change the Weather History Date:

Friday, January 24, 2014

  Actual Average (KSTL) Record (KSTL)
Temperature  
Mean Temperature 19 °F 32 °F  
Max Temperature 37 °F 40 °F 77 °F (1950)
Min Temperature 1 °F 24 °F -11 °F (1894)
Degree Days  
Heating Degree Days 46 33  
Month to date heating degree days 800  
Since 1 July heating degree days 2565  
Cooling Degree Days 0 0  
Month to date cooling degree days 0  
Year to date cooling degree days 0  
Moisture  
Dew Point -1 °F    
Average Humidity 44    
Maximum Humidity 85    
Minimum Humidity 18    
Precipitation  
Precipitation 0.00 in 0.07 in 1.25 in (1928)
Month to date precipitation 1.88  
Year to date precipitation 1.88  
Snow  
Snow 0.00 in 0.10 in 4.60 in (1936)
Month to date snowfall 4.3  
Since 1 July snowfall 9.4  
Snow Depth -    
Sea Level Pressure  
Sea Level Pressure 30.27 in    
Wind  
Wind Speed 6 mph (SW)    
Max Wind Speed 23 mph    
Max Gust Speed 31 mph    
Visibility 10 miles    
Events      
T = Trace of Precipitation, MM = Missing Value Source: NWS Daily Summary

Daily Weather History Graph

Daily Weather History Graph

Search for Another Location

Airport or City:

Trip Planner

Search our weather history database for the weather conditions in past years. The results will help you decide how hot, cold, wet, or windy it might be!

Date:

Astronomy

Jan. 24, 2014 Rise Set
Actual Time 7:15 AM CST 5:16 PM CST
Civil Twilight 6:47 AM CST 5:45 PM CST
Nautical Twilight 6:15 AM CST 6:17 PM CST
Astronomical Twilight 5:43 AM CST 6:49 PM CST
Moon 12:44 AM CST (1/24) 11:35 AM CST (1/24)
Length of Visible Light 10h 58m
Length of Day
10h 01m
Last Quarter, 44% of the Moon is Illuminated
Jan 24
Last Quarter
Jan 30
New
Feb 6
First Quarter
Feb 14
Full
Feb 22
Last Quarter

Hourly Weather History & Observations

Time (CST) Temp. Windchill Dew Point Humidity Pressure Visibility Wind Dir Wind Speed Gust Speed Precip Events Conditions
12:15 AM 5.0 °F - -2.2 °F 72% 30.71 in 10.0 mi Calm Calm - N/A   Clear
12:35 AM 5.0 °F - -0.4 °F 78% 30.70 in 10.0 mi Calm Calm - N/A   Clear
12:55 AM 5.0 °F - -2.2 °F 72% 30.69 in 10.0 mi Calm Calm - N/A   Clear
1:15 AM 5.0 °F - -2.2 °F 72% 30.68 in 10.0 mi Calm Calm - N/A   Clear
1:35 AM 5.0 °F - -2.2 °F 72% 30.68 in 10.0 mi Calm Calm - N/A   Clear
1:55 AM 5.0 °F - -2.2 °F 72% 30.67 in 10.0 mi Calm Calm - N/A   Clear
2:15 AM 5.0 °F - -2.2 °F 72% 30.66 in 10.0 mi Calm Calm - N/A   Clear
2:35 AM 5.0 °F - -2.2 °F 72% 30.66 in 10.0 mi Calm Calm - N/A   Clear
2:55 AM 3.2 °F - -2.2 °F 78% 30.65 in 10.0 mi Calm Calm - N/A   Clear
3:15 AM 5.0 °F - -2.2 °F 72% 30.63 in 10.0 mi Calm Calm - N/A   Clear
3:35 AM 5.0 °F - -2.2 °F 72% 30.62 in 10.0 mi Calm Calm - N/A   Clear
3:55 AM 3.2 °F - -2.2 °F 78% 30.61 in 10.0 mi Calm Calm - N/A   Clear
4:15 AM 1.4 °F - -2.2 °F 85% 30.61 in 10.0 mi Calm Calm - N/A   Clear
4:35 AM 3.2 °F - -2.2 °F 78% 30.60 in 10.0 mi Calm Calm - N/A   Clear
4:55 AM 3.2 °F - -2.2 °F 78% 30.59 in 10.0 mi Calm Calm - N/A   Clear
5:15 AM 5.0 °F -4.1 °F -2.2 °F 72% 30.57 in 10.0 mi SSW 4.6 mph - N/A   Clear
5:35 AM 6.8 °F -5.9 °F -2.2 °F 67% 30.57 in 10.0 mi SW 8.1 mph - N/A   Clear
6:15 AM 6.8 °F -5.9 °F -2.2 °F 67% 30.55 in 10.0 mi SSW 8.1 mph - N/A   Clear
6:35 AM 6.8 °F -4.8 °F -2.2 °F 67% 30.54 in 10.0 mi SSW 6.9 mph - N/A   Clear
6:55 AM 6.8 °F -3.5 °F -2.2 °F 67% 30.54 in 10.0 mi SSW 5.8 mph - N/A   Clear
7:15 AM 6.8 °F -2.0 °F -2.2 °F 67% 30.53 in 10.0 mi South 4.6 mph - N/A   Clear
7:35 AM 6.8 °F - -2.2 °F 67% 30.51 in 10.0 mi Calm Calm - N/A   Clear
7:55 AM 6.8 °F -7.8 °F -2.2 °F 67% 30.50 in 10.0 mi SSW 10.4 mph - N/A   Clear
8:15 AM 8.6 °F -5.5 °F -0.4 °F 67% 30.49 in 10.0 mi SSW 10.4 mph - N/A   Clear
8:35 AM 10.4 °F -4.8 °F -0.4 °F 62% 30.47 in 10.0 mi SSW 12.7 mph 18.4 mph N/A   Clear
8:55 AM 12.2 °F -1.0 °F -0.4 °F 57% 30.46 in 10.0 mi SW 10.4 mph - N/A   Clear
9:15 AM 14.0 °F -0.2 °F -2.2 °F 49% 30.45 in 10.0 mi SW 12.7 mph - N/A   Clear
9:55 AM 15.8 °F 0.3 °F -2.2 °F 45% 30.43 in 10.0 mi SSW 16.1 mph - N/A   Clear
10:15 AM 17.6 °F 4.3 °F -2.2 °F 42% 30.43 in 10.0 mi SW 12.7 mph 17.3 mph N/A   Clear
10:35 AM 19.4 °F 7.2 °F -2.2 °F 39% 30.40 in 10.0 mi SW 11.5 mph 18.4 mph N/A   Clear
10:55 AM 21.2 °F 9.5 °F -2.2 °F 36% 30.38 in 10.0 mi SW 11.5 mph 18.4 mph N/A   Clear
11:15 AM 23.0 °F 10.6 °F -4.0 °F 31% 30.36 in 10.0 mi SW 13.8 mph 23.0 mph N/A   Clear
11:35 AM 23.0 °F 10.6 °F -4.0 °F 31% 30.33 in 10.0 mi SSW 13.8 mph - N/A   Clear
11:55 AM 26.6 °F 14.3 °F -5.8 °F 24% 30.29 in 10.0 mi SSW 16.1 mph 21.9 mph N/A   Clear
12:15 PM 26.6 °F 13.1 °F -7.6 °F 22% 30.27 in 10.0 mi SSW 19.6 mph 24.2 mph N/A   Clear
12:55 PM 28.4 °F 16.2 °F -7.6 °F 21% 30.21 in 10.0 mi SW 17.3 mph 25.3 mph N/A   Clear
1:15 PM 30.2 °F 18.1 °F -7.6 °F 19% 30.18 in 10.0 mi SW 18.4 mph 24.2 mph N/A   Clear
1:35 PM 32.0 °F 20.1 °F -7.6 °F 18% 30.15 in 10.0 mi SW 19.6 mph 25.3 mph N/A   Clear
1:55 PM 32.0 °F 20.1 °F -5.8 °F 20% 30.13 in 10.0 mi WSW 19.6 mph 27.6 mph N/A   Clear
2:15 PM 32.0 °F 20.5 °F -4.0 °F 21% 30.09 in 10.0 mi SSW 18.4 mph 27.6 mph N/A   Clear
2:35 PM 35.6 °F 24.5 °F -4.0 °F 18% 30.07 in 10.0 mi SSW 20.7 mph 27.6 mph N/A   Clear
2:55 PM 35.6 °F 25.9 °F -2.2 °F 20% 30.04 in 10.0 mi SW 16.1 mph 29.9 mph N/A   Clear
3:15 PM 35.6 °F 24.5 °F -2.2 °F 20% 30.03 in 10.0 mi SW 20.7 mph 28.8 mph N/A   Clear
3:35 PM 35.6 °F 24.2 °F -0.4 °F 22% 30.02 in 10.0 mi SW 21.9 mph 31.1 mph N/A   Clear
3:55 PM 35.6 °F 24.0 °F -0.4 °F 22% 30.01 in 10.0 mi SW 23.0 mph 29.9 mph N/A   Clear
4:15 PM 35.6 °F 24.5 °F -0.4 °F 22% 29.99 in 10.0 mi SW 20.7 mph - N/A   Clear
4:35 PM 35.6 °F 25.5 °F -0.4 °F 22% 29.98 in 10.0 mi SW 17.3 mph 25.3 mph N/A   Clear
5:15 PM 35.6 °F 27.1 °F -0.4 °F 22% 29.97 in 10.0 mi SW 12.7 mph 24.2 mph N/A   Clear
5:35 PM 33.8 °F 25.8 °F 1.4 °F 25% 29.98 in 10.0 mi SW 10.4 mph - N/A   Clear
5:55 PM 33.8 °F 25.8 °F 1.4 °F 25% 29.98 in 10.0 mi SW 10.4 mph - N/A   Clear
6:15 PM 33.8 °F 25.8 °F 1.4 °F 25% 29.97 in 10.0 mi SW 10.4 mph 17.3 mph N/A   Scattered Clouds
6:35 PM 35.6 °F 27.5 °F 1.4 °F 24% 29.96 in 10.0 mi SW 11.5 mph 16.1 mph N/A   Scattered Clouds
6:55 PM 35.6 °F 26.6 °F 1.4 °F 24% 29.96 in 10.0 mi SW 13.8 mph - N/A   Mostly Cloudy
7:15 PM 35.6 °F 27.1 °F 1.4 °F 24% 29.94 in 10.0 mi SW 12.7 mph 17.3 mph N/A   Overcast
7:35 PM 35.6 °F 27.5 °F 3.2 °F 26% 29.94 in 10.0 mi SW 11.5 mph - N/A   Overcast
7:55 PM 35.6 °F 29.2 °F 3.2 °F 26% 29.94 in 10.0 mi SW 8.1 mph 17.3 mph N/A   Overcast
8:15 PM 35.6 °F 28.0 °F 5.0 °F 28% 29.92 in 10.0 mi SW 10.4 mph - N/A   Overcast
8:35 PM 35.6 °F 27.1 °F 5.0 °F 28% 29.89 in 10.0 mi WSW 12.7 mph - N/A   Overcast
8:55 PM 37.4 °F 31.4 °F 6.8 °F 28% 29.88 in 10.0 mi WSW 8.1 mph 17.3 mph N/A   Overcast
9:15 PM 37.4 °F 30.8 °F 6.8 °F 28% 29.87 in 10.0 mi WSW 9.2 mph 19.6 mph N/A   Overcast
9:35 PM 37.4 °F 30.8 °F 6.8 °F 28% 29.86 in 10.0 mi WSW 9.2 mph - N/A   Overcast
9:55 PM 37.4 °F 29.8 °F 6.8 °F 28% 29.85 in 10.0 mi WSW 11.5 mph - N/A   Overcast
10:15 PM 37.4 °F 31.4 °F 6.8 °F 28% 29.84 in 10.0 mi SW 8.1 mph 19.6 mph N/A   Overcast
10:35 PM 37.4 °F 30.3 °F 8.6 °F 30% 29.83 in 10.0 mi WSW 10.4 mph 16.1 mph N/A   Overcast
10:55 PM 37.4 °F 30.3 °F 8.6 °F 30% 29.82 in 10.0 mi WSW 10.4 mph - N/A   Overcast
11:55 PM 37.4 °F 32.1 °F 8.6 °F 30% 29.77 in 10.0 mi WSW 6.9 mph - N/A   Overcast